Find Shiyan 27-06

NORAD ID: 63604 Int'l Des: 2025-078 Owner: CAST Country: CN operational
LEOCIRCULARRETROGRADESSO

リアルタイム位置

3D地球を読み込み中...

Shiyan 27-06について

説明を読み込み中...

次回通過

Passes for default location (London). Set your location on the main map for personalized predictions.

高度履歴

Loading altitude history...

軌道要素

1 63604U 25078F 26104.49318662 .00000001 00000-0 62974-4 0 9996
2 63604 99.6928 112.6583 0000965 99.7392 260.3856 13.57244192 48896
Epoch: Apr 14, 2026 • Age: 7 hours

現在のステータス

高度 1073.5 km
速度 7.31 km/s
衛星直下点 -74.70°S, 135.41°E
打ち上げ日 Apr 18, 2025
運用期間 0.9 years
タイプ other

技術仕様

分類 Payload
質量 300.00 kg
乾燥質量 300.00 kg
総質量 300.00 kg
長さ 0.30 m
直径 3.00 m
スパン 10.00 m
形状 Box+pan
製造者 CAST
バスタイプ SW27
フェーズステータス In Orbit
所有者/国 CAST/CN

Most Searched